TimeMDT,TemperatureF,Dew PointF,Humidity,Sea Level PressureIn,VisibilityMPH,Wind Direction,Wind SpeedMPH,Gust SpeedMPH,PrecipitationIn,Events,Conditions,WindDirDegrees,DateUTC
12:40 AM,78.8,73.4,83,29.85,10.0,Calm,Calm,-,N/A,,Mostly Cloudy,0,2013-09-04 06:40:00
1:40 AM,78.8,73.4,83,29.82,10.0,Calm,Calm,-,N/A,,Mostly Cloudy,0,2013-09-04 07:40:00
2:42 AM,77.0,71.6,83,29.78,10.0,Calm,Calm,-,N/A,,Mostly Cloudy,0,2013-09-04 08:42:00
3:40 AM,77.0,71.6,83,29.81,10.0,Calm,Calm,-,N/A,,Scattered Clouds,0,2013-09-04 09:40:00
4:40 AM,77.0,71.6,83,29.81,10.0,Calm,Calm,-,N/A,,Overcast,0,2013-09-04 10:40:00
5:40 AM,77.0,71.6,83,29.81,10.0,Calm,Calm,-,N/A,,Overcast,0,2013-09-04 11:40:00
6:44 AM,77.0,75.2,94,29.83,10.0,Calm,Calm,-,N/A,,Scattered Clouds,0,2013-09-04 12:44:00
7:46 AM,78.8,73.4,83,29.84,10.0,Calm,Calm,-,N/A,,Scattered Clouds,0,2013-09-04 13:46:00
8:45 AM,84.2,71.6,66,29.84,10.0,ENE,5.8,-,N/A,,Scattered Clouds,60,2013-09-04 14:45:00
9:41 AM,86.0,73.4,66,29.85,20.0,Calm,Calm,-,N/A,,Clear,0,2013-09-04 15:41:00
10:45 AM,91.4,75.2,59,29.86,10.0,Calm,Calm,-,N/A,,Scattered Clouds,0,2013-09-04 16:45:00
11:41 AM,91.4,77.0,63,29.84,20.0,Calm,Calm,-,N/A,,Scattered Clouds,0,2013-09-04 17:41:00
12:45 PM,95.0,77.0,56,29.82,10.0,Calm,Calm,-,N/A,,Scattered Clouds,0,2013-09-04 18:45:00
1:40 PM,95.0,77.0,56,29.81,10.0,NNW,8.1,-,N/A,,Scattered Clouds,330,2013-09-04 19:40:00
2:42 PM,95.0,77.0,56,29.76,10.0,WNW,13.8,-,N/A,,Scattered Clouds,290,2013-09-04 20:42:00
3:41 PM,95.0,77.0,56,29.78,10.0,West,11.5,-,N/A,,Scattered Clouds,270,2013-09-04 21:41:00
4:40 PM,77.0,77.0,100,29.77,10.0,West,11.5,-,N/A,,Scattered Clouds,270,2013-09-04 22:40:00
4:49 PM,95.0,77.0,56,29.77,10.0,West,11.5,-,N/A,,Scattered Clouds,270,2013-09-04 22:49:00
5:47 PM,95.0,77.0,56,29.74,10.0,WNW,11.5,-,N/A,,Mostly Cloudy,300,2013-09-04 23:47:00
6:42 PM,91.4,77.0,63,29.77,10.0,West,5.8,-,N/A,,Mostly Cloudy,270,2013-09-05 00:42:00
7:42 PM,89.6,75.2,62,29.79,10.0,Calm,Calm,-,N/A,,Mostly Cloudy,0,2013-09-05 01:42:00
8:40 PM,87.8,73.4,62,29.79,10.0,NNE,5.8,-,N/A,,Mostly Cloudy,20,2013-09-05 02:40:00
9:18 PM,80.6,75.2,84,29.82,8.0,Calm,Calm,-,N/A,Rain,Light Rain,0,2013-09-05 03:18:00
9:40 PM,78.8,78.8,100,29.82,8.0,NNE,5.8,-,N/A,Rain-Thunderstorm,Light Thunderstorms and Rain,30,2013-09-05 03:40:00
10:43 PM,77.0,77.0,100,29.80,8.0,Calm,Calm,-,N/A,Rain,Light Rain,0,2013-09-05 04:43:00
11:40 PM,78.8,73.4,83,29.81,10.0,Calm,Calm,-,N/A,,Mostly Cloudy,0,2013-09-05 05:40:00